TITAN 3C TRANSTAGE DEB, 43282

Orbit data source: Space-Track

TITAN 3C TRANSTAGE DEB, 43282 is space debris in GEO originally from a launch on Sun, 09 Feb 1969 UTC launched from the Air Force Eastern Test Range (AFETR). Debris objects in space refer to the collection of defunct objects orbiting the Earth. Examples of debris include non-operational satellites, rocket bodies, and fragments generated from explosions, collisions, or faulty payload assembly.

Loading next visibility...
Identifier
43282, 1969-013C
Orbit
GEO
Last TLE update
2 days ago
Origin
Manufacturer
Martin Marietta
Mission
Spacecraft
Bus & Motor
Unknown
Mass
Unknown
Launch date (UTC)
1969-02-09 (56 years ago)
Launch vehicle
Unknown
Launch site
Air Force Eastern Test Range (AFETR)
Object type
Payload
Rocket body
Debris
Shape & HBR
Unknown
Radar Cross Section
RCS unknown

Expand to show TLE details & history

TLE from 2 days ago
0 TITAN 3C TRANSTAGE DEB
1 43282U 69013C   25161.68057631 -.00000100  00000-0  00000-0 0  9991
2 43282   1.2889  45.5721 0281060 242.6757 113.2373  0.91409633 24194
Epoch: 2025-06-10T16:20Z
TLE epoch observation values (Epoch: 2025-06-10T16:20:01.793Z)
Latitude
0.00001°
Longitude
-99.88468°
Altitude
39,003.149 km
Speed
2.946 km/s
True Right ascension
02h 57m 35s
True Declination
0° 00' 00"
Sunlit
Object was in daylight at epoch
Visualization orbit readout
Latitude
-1.28087°
Longitude
-177.77093°
Altitude
37,465.686 km
Speed
3.049 km/s
Apparent Right ascension
21h 23m 01s
Apparent Declination
-6° 56' 47"
Sunlit
Object is in daylight
Visualization observer readout
Local Sidereal Time
01:38:14
Azimuth
247.226° WSW
Elevation
14.98°
Doppler factor
1
Orbital elements
Apogee altitude
39,731.129 km
Perigee altitude
37,210.091 km
Semi-major axis
44,848.747 km
Eccentricity
0.02811
Inclination
1.2889°
RAAN
45.5721°
Arg. of periapsis
242.6757°
True anomaly
Unknown
Mean anomaly
113.2373°
Eccentric anomaly
Unknown
Mean motion
0.22852 °/min
Orbital period
1,575.38 mins
BSTAR
0
Loading historical data...
43282 neighbors
Loading maneuver chart data...
Loading SW <> Apogee altitude chart data...

TITAN 3C TRANSTAGE DEB Visibility forecast

Observer location: undefined°, undefined°

Span
Click to sort rows by Start time (UTC) header in descending order
Start Az.
Max El. time (UTC)
Max El. Az.
Max El.
End time (UTC)
End Az.
402 mins2025-06-12 15:13:54.616Z247.213° WSW2025-06-12 15:13:54.616Z247.213° WSW14.487°2025-06-12 21:55:54.616Z254.65° W
|